Regional Weather Roundup
Issued by NWS

Home | Current Version | Previous Version | Text Only | Print | Product List | Glossary On
Versions: 1 2 3 4 5 6 7 8 9 10 11 12 13 14 15 16 17 18 19 20 21 22 23 24 25 26 27 28 29 30 31 32 33 34 35 36 37 38 39 40 41 42 43 44 45 46 47 48 49 50
000
ASUS43 KLSX 202159
RWRMO

WEATHER SUMMARY FOR MISSOURI
NATIONAL WEATHER SERVICE SPRINGFIELD MO
500 PM CDT MON APR 20 2015

NOTE: "FAIR" INDICATES FEW OR NO CLOUDS BELOW 12,000 FEET WITH NO
       SIGNIFICANT WEATHER AND/OR OBSTRUCTIONS TO VISIBILITY.
       CURRENT SKY AND/OR WEATHER CONDITIONS ARE NOT AVAILABLE FOR
       CHILLICOTHE AND FARMINGTON.

MOZ001>031-035>038-043-044-053-054-202300-
...NORTHERN AND WESTERN MISSOURI...

CITY           SKY/WX    TMP DP  RH WIND       PRES   REMARKS
KANSAS CTY INT PTSUNNY   58  24  27 W22G30    29.83S
KANSAS C DTWN  MOSUNNY   59  21  23 NW16G25   29.82F
LEE`S SUMMIT   MOSUNNY   59  24  26 W16G32    29.84R
ST JOSEPH      PTSUNNY   59  24  26 NW20G28   29.81F
CHILLICOTHE      N/A     57  28  33 NW16G24   29.79S
KIRKSVILLE     LGT RAIN  53  29  39 W20G28    29.75S

$$
MOZ066>068-077>081-088>096-101>105-202300-
...SOUTHWEST MISSOURI...

CITY           SKY/WX    TMP DP  RH WIND       PRES   REMARKS
SPRINGFIELD    PTSUNNY   58  29  33 NW14G29   29.87S
JOPLIN         MOSUNNY   59  30  33 NW17      29.91S

$$
MOZ032>034-039>042-045>050-055>058-069>072-202300-
...CENTRAL MISSOURI...

CITY           SKY/WX    TMP DP  RH WIND       PRES   REMARKS
COLUMBIA       MOSUNNY   56  31  38 W14G26    29.79S
JEFFERSON CITY PTSUNNY   56  28  34 W16       29.80F
ROLLA          MOSUNNY   55  30  38 NW21G30   29.79S
SEDALIA        MOSUNNY   57  30  35 W15       29.83S
OSAGE BEACH    PTSUNNY   57  27  30 W10G23    29.83R

$$
MOZ051-052-059>065-202300-
...EAST CENTRAL MISSOURI...

CITY           SKY/WX    TMP DP  RH WIND       PRES   REMARKS
ST LOUIS INTL  PTSUNNY   56  31  38 NW18G36   29.77R
SPIRIT OF STL  PTSUNNY   55  32  41 NW15      29.77R
ST CHARLES     CLOUDY    55  33  43 NW20G28   29.76R

$$
MOZ072>076-082>087-097>100-106>115-202300-
...SOUTH CENTRAL AND SOUTHEAST MISSOURI...

CITY           SKY/WX    TMP DP  RH WIND       PRES   REMARKS
CAPE GIRARDEAU PTSUNNY   62  38  40 W16       29.76R
FARMINGTON     CLOUDY    57  28  33 NW15G25   29.81R
POPLAR BLUFF   LGT RAIN  65  32  29 W18G24    29.77R
WEST PLAINS    PTSUNNY   61  30  31 W10G21    29.83S

$$


USA.gov is the U.S. government's official web portal to all federal, state and local government web resources and services.